Regional Weather Roundup
Issued by NWS

Home | Current Version | Previous Version | Graphics & Text | Print | Product List | Glossary On
Versions: 1 2 3 4 5 6 7 8 9 10 11 12 13 14 15 16 17 18 19 20 21 22 23 24 25 26 27 28 29 30 31 32 33 34 35 36 37 38 39 40 41 42 43 44 45 46 47 48 49 50
000
ASUS45 KTFX 030304
RWRMT
MONTANA HOURLY WEATHER ROUNDUP
NATIONAL WEATHER SERVICE GREAT FALLS MT
904 PM MDT TUE SEP 2 2014

NOTE: "FAIR" INDICATES FEW OR NO CLOUDS BELOW 12000 FEET WITH NO
SIGNIFICANT WEATHER AND/OR OBSTRUCTIONS TO VISIBILITY.

* THESE STATIONS ARE NOT UNDER NWS QUALITY CONTROL. THEY DO NOT
   REPORT WEATHER SUCH AS PRECIPITATION OR FOG.

MTZ001>007-043-030400-
WEST OF THE DIVIDE
CITY           SKY/WX    TMP DP  RH WIND       PRES   REMARKS
KALISPELL      LGT RAIN  63  41  45 CALM      29.68S
MISSOULA       PTCLDY    70  37  30 N8        29.70R
BUTTE          CLEAR     57  36  46 SE5       29.81R
MULLAN PASS    MOCLDY    52  32  47 VRB6      29.82F
* LINCOLN      N/A       64  38  38 S3G10      N/A
* LOOKOUT PASS N/A       58  35  42 SE2G9      N/A
* POLSON       N/A       64  39  40 W2         N/A
* RONAN APT    MOCLDY    64  43  47 N/A        N/A
* SEELEY LAKE  N/A       65  37  36 E1G9       N/A
* THOMP F APT  MOCLDY    61  30  31 S3G16      N/A
$$

MTZ008-052>055-030400-
SOUTHWEST MONTANA
CITY           SKY/WX    TMP DP  RH WIND       PRES   REMARKS
BOZEMAN        CLEAR     63  37  38 S6        29.73S
DILLON         CLEAR     68  34  28 S15G23    29.77R
W YELLOWSTONE  CLEAR     57  36  46 S7        29.96S
* THREE FORKS  CLEAR     73  55  53 SW8        N/A
* BOULDER HILL N/A       57  30  36 NE1        N/A
* MONIDA PASS  N/A       59  28  31 S12G17     N/A
* RAYNOLDS PAS N/A       56  35  45 SE13       N/A
* WHITEHALL    N/A       67  35  31 NW6        N/A
* WISE RIVER   N/A       62  29  29 W1G9       N/A
$$

MTZ009>010-012-014-046-048-049-054-030400-
EAST SLOPES AND CENTRAL MONTANA
CITY           SKY/WX    TMP DP  RH WIND       PRES   REMARKS
CUT BANK       MOCLDY    57  43  60 NW9       29.71S
GREAT FALLS    PTCLDY    63  39  41 N6        29.70R
HELENA         CLEAR     64  36  35 NW5       29.73R
MALMSTROM AFB  MOCLDY    64  37  37 NE10      29.72R
* CONRAD       MOCLDY    64  43  47 N/A        N/A
* EAST GLACIER N/A       51  40  66 E6         N/A
* MONARCH      N/A       55  31  40 S2         N/A
* PENDROY      N/A       59  39  48 E8         N/A
* ROGERS PASS  N/A       54  34  47 NW3        N/A
* SAINT MARY   N/A       59  37  44 SW4G11     N/A
* SWEET GRASS  N/A       59  40  50 N7         N/A
$$

MTZ011-013-016-021-035-040-045-047-050-051-030400-
NORTH CENTRAL MONTANA
CITY           SKY/WX    TMP DP  RH WIND       PRES   REMARKS
HAVRE          PTCLDY    61  45  56 SE3       29.67R
LEWISTOWN      CLEAR     57  43  60 E8        29.75R
* CHESTER      N/A       66  36  33 NW6G11     N/A
* DENTON       N/A       58  41  53 NE8        N/A
* GEYSER       N/A       55  41  59 SE10       N/A
* JUDITH GAP   N/A       59  40  50 VRB4G11    N/A
* LOMA         N/A       68  38  33 NE4        N/A
$$

MTZ017>020-022>027-061-062-030400-
NORTHEAST MONTANA
CITY           SKY/WX    TMP DP  RH WIND       PRES   REMARKS
GLASGOW        CLEAR     61  43  52 S8        29.71R
GLENDIVE       CLEAR     61  43  52 E6        29.76S
JORDAN         CLEAR     61  45  56 NE3       29.72R
SIDNEY         PTCLDY    57  45  64 SW3       29.76R
WOLF POINT     CLEAR     61  48  62 NE3       29.72S
* BEAVER HILL  N/A       59  40  50 E6         N/A
* CIRCLE       N/A       61  46  58 N/A        N/A
* LINDSAY DVD  N/A       54  41  62 NE2        N/A
* NAVAJO       N/A       59  43  56 SW7        N/A
$$

MTZ028>042-056>058-030400-
SOUTHCENTRAL AND SOUTHEAST MONTANA
CITY           SKY/WX    TMP DP  RH WIND       PRES   REMARKS
BAKER          CLEAR     55  46  72 SE5       29.79S
BILLINGS       CLEAR     70  45  41 CALM      29.70F
LIVINGSTON     CLEAR     72  34  25 SW16      29.73S
MILES CITY     CLEAR     64  43  47 E9        29.72S
* LAUREL APT   CLEAR     70  45  41 N/A        N/A
* ROUNDUP APT  CLEAR     70  45  41 N/A        N/A
* ALZADA       N/A       66  40  39 NE9        N/A
* HYSHAM       N/A       66  38  36 NE2        N/A
* LAME DEER    N/A       68  39  35 E4         N/A
* REED POINT   N/A       63  45  52 SE2G8      N/A
* ROSCOE HILL  N/A       66  21  18 W4G9       N/A
$$

REGIONAL REPORTS...DAKOTAS
CITY           SKY/WX    TMP DP  RH WIND       PRES   REMARKS
WILLISTON      PTCLDY    55  48  77 W3        29.74R
DICKINSON      CLEAR     52  45  77 S6        29.78S
BEACH          N/A       52  46  80 CALM      29.78F
CROSBY         CLEAR     54  50  86 SE6       29.75S
TIOGA          CLEAR     52  50  93 E3        29.79S
WATFORD CITY   CLEAR     57  46  67 S3        29.74R
BISMARCK       MOCLDY    57  54  90 CALM      29.78R
GRAND FORKS    PTCLDY    64  54  70 SW8       29.70R
FARGO          PTCLDY    66  57  73 S3        29.74R
BUFFALO SD     CLEAR     61  48  62 NE9       29.74R
RAPID CITY     CLEAR     63  45  52 CALM      29.80S
$$

REGIONAL REPORTS...WYOMING/IDAHO/WASHINGTON
CITY           SKY/WX    TMP DP  RH WIND       PRES   REMARKS
GILLETTE       CLEAR     55  41  59 S6        29.80R
SHERIDAN       CLEAR     57  46  67 CALM      29.75S
CODY           CLEAR    N/A N/A N/A N/A        N/A
YELLOWSTONE LA CLEAR     45  36  71 CALM      30.08R
SALMON         CLEAR     72  27  19 W8        29.72R
MULLAN PASS    MOCLDY    52  32  47 VRB6      29.82S
SAND POINT     PTCLDY    55  50  83 CALM      29.64F
SPOKANE        PTCLDY    70  43  38 S13       29.66S
$$

REGIONAL REPORTS...SASKATCHEWAN
CITY           SKY/WX    TMP DP  RH WIND       PRES   REMARKS
SWIFT CURRENT  CLOUDY    57  48  72 E12       29.69R

$$




USA.gov is the U.S. government's official web portal to all federal, state and local government web resources and services.